Terminal Aerodrome Forecast
Issued by NWS

Home | Current Version | Previous Version | Text Only | Print | Product List | Glossary On
Versions: 1 2 3 4 5 6 7 8 9 10 11 12 13 14 15 16 17 18 19 20 21 22 23 24 25 26 27 28 29 30 31 32 33 34 35 36 37 38 39 40 41 42 43 44 45 46 47 48 49 50
154
FTAK31 PANC 241722
TAFASN
TAF
PASN 241722Z 2418/2518 01020G26KT 2SM -SN BLSN OVC010
      TEMPO 2418/2420 1SM -SN BLSN OVC006
     FM250600 34018G25KT 5SM -SHSN OVC015=

USA.gov is the U.S. government's official web portal to all federal, state and local government web resources and services.